Find GOES 10

NORAD ID: 24786 Int'l Des: 1997-019 Owner: NOAA Country: US operational
HEOCIRCULAR

当前视图

正在加载3D地球...

关于 GOES 10

正在加载描述...

即将过境

Passes for default location (London). Set your location on the main map for personalized predictions.

高度历史

Loading altitude history...

两行轨道根数

1 24786U 97019A 26146.60402955 -.00000196 00000-0 00000-0 0 9990
2 24786 13.1025 21.2518 0029424 239.4208 313.2126 0.99124287105858
Epoch: May 26, 2026 • Age: 6 hours

当前状态

高度 36012.0 km
速度 3.07 km/s
星下点 -13.07°S, 111.66°E
发射日期 Apr 25, 1997
运行时间 29 years
类型 weather

技术详情

分类 Payload
质量 2105.00 kg
干质量 977.00 kg
总质量 2105.00 kg
长度 4.50 m
直径 2.50 m
跨度 26.90 m
形状 Box + Pan + Ant
制造商 LOR
平台类型 FS-1300
阶段状态 In Orbit
所有者/国家 NOAA/US

Most Searched